Miscellaneous Local Product
Issued by NWS Hastings, NE

Home | Current Version | Previous Version | Graphics & Text | Print | Product List | Glossary On
Versions: 1 2 3 4 5 6 7 8 9 10 11 12 13 14 15 16 17 18 19 20 21 22 23 24 25 26 27 28 29 30 31 32 33 34 35 36 37 38 39 40 41 42 43 44 45 46 47 48 49 50
000
AXUS43 KGID 172302
MISGRI

GID CWA HOURLY WEATHER ROUNDUP
NATIONAL WEATHER SERVICE HASTINGS NE
500 PM CST FRI FEB 17 2017

NOTE: "FAIR" INDICATES FEW OR NO CLOUDS BELOW 12,000 FEET WITH NO
SIGNIFICANT WEATHER AND/OR OBSTRUCTIONS TO VISIBILITY.

...SOUTH CENTRAL NEBRASKA...

CITY           SKY/WX    TMP DP  RH WIND       PRES   REMARKS
GRAND ISLAND   SUNNY     65  33  30 N18       29.63R
HASTINGS       SUNNY     70  27  20 N10       29.62R
KEARNEY        SUNNY     66  34  30 NE17      29.63F
ORD            SUNNY     64  26  23 N9        29.63R
YORK           SUNNY     66  32  28 N14G23    29.61R
AURORA         SUNNY     66  33  29 N15       29.62R
LEXINGTON      SUNNY     64  29  26 NE12      29.64S
HOLDREGE       SUNNY     66  28  23 NE17      29.62S
HEBRON         SUNNY     70  28  20 SW7       29.61R

...NEBRASKA PANHANDLE...

CITY           SKY/WX    TMP DP  RH WIND       PRES   REMARKS
CHADRON        SUNNY     60  25  26 N5        29.67F
ALLIANCE       SUNNY     61  18  18 N9        29.69S
SCOTTSBLUFF    SUNNY     65  14  14 N12       29.68F
SIDNEY         SUNNY     62  12  14 NE13      29.71F

...WESTERN AND NORTH CENTRAL NEBRASKA...

CITY           SKY/WX    TMP DP  RH WIND       PRES   REMARKS
VALENTINE        N/A     61  20  20 N13       29.68R
AINSWORTH      SUNNY     58  29  32 N9        29.68R
ONEILL         SUNNY     60  31  33 N14G23    29.65R
BROKEN BOW     SUNNY     64  25  22 N13       29.65R
IMPERIAL       SUNNY     65  23  20 E9        29.67R
NORTH PLATTE   SUNNY     66  25  21 NE12      29.67R
MCCOOK         CLOUDY    69  28  21 NE14      29.63S

...EASTERN NEBRASKA...

CITY           SKY/WX    TMP DP  RH WIND       PRES   REMARKS
NORFOLK        SUNNY     62  35  36 N7        29.62R
SO SIOUX CITY  CLEAR     62  42  47 NW12      29.59R
TEKAMAH        CLEAR     64  43  46 W7        29.58R
COLUMBUS       SUNNY     63  37  39 N10       29.63R
ALBION         SUNNY     64  28  25 N9        29.63S
OMAHA EPPLEY   PTCLDY    71  34  25 NW13      29.56S
OFFUTT AFB     CLEAR     72  31  22 SW10      29.57R
MILLARD        SUNNY     71  36  28 NW12      29.58R
LINCOLN        SUNNY     72  31  22 W7        29.60R
NEBRASKA CITY  SUNNY     72  17  12 SW14      29.59R
BEATRICE       SUNNY     71  34  25 SW14      29.60R
FALLS CITY     SUNNY     74  28  18 SW16      29.60R

...NORTHERN KANSAS...

CITY           SKY/WX    TMP DP  RH WIND       PRES   REMARKS
GOODLAND       SUNNY     67  17  14 N9        29.66F
HILL CITY      SUNNY     74  22  14 NE8       29.61R
NORTON         CLEAR     70  19  14 N13       29.60S
PHILLIPSBURG   SUNNY     72  19  14 SE6       29.60S
SMITH CENTER   SUNNY     72  21  15 SE3       29.60S
HAYS           SUNNY     73  27  18 CALM      29.60R
RUSSELL        SUNNY     74  30  19 S9        29.58S
CONCORDIA      SUNNY     71  32  23 SW12      29.60R
SALINA         SUNNY     74  32  21 S18       29.61S
TOPEKA         SUNNY     75  30  19 SW13      29.63R



USA.gov is the U.S. government's official web portal to all federal, state and local government web resources and services.